Latest Coastal Weather Observations for Strahan

IDT60701

Issued at 9:11 pm EDT Sunday 1 February 2015 (issued every 10 minutes, with the page automatically refreshed every 10 minutes)

About coastal observations | Map of coastal stations | Coastal observations for TAS | Marine services | Other Formats
Station Details ID: 097072 Name: STRAHAN AERODROME Lat: -42.16 Lon: 145.29 Height: 21.0 m
Data from the previous 72 hours. | See also: Recent months at Strahan
Date/Time
EDT
Temp

°C
Wind Pressure Rain
since 9am
mm
Weather Cloud Vis
km
Sea
Height
m
Swell
Dir
 
Speed
knots
Gust
knots
hPa Trend Height
m
Period
s
Dir
01/09:00pm 13.8 SSE 19 26 1016.8 - 0.0 - - 10 - - - -
01/08:46pm 13.8 SSE 15 27 1016.6 - 0.0 - - 10 - - - -
01/08:30pm 14.2 SSE 16 24 1016.4 - 0.0 - - 10 - - - -
01/08:00pm 14.8 S 15 23 1016.0 - 0.0 - - 10 - - - -
01/07:30pm 15.7 SSE 16 22 1015.7 - 0.0 - - 10 - - - -
01/07:00pm 16.7 SSE 16 22 1015.4 - 0.0 - - 10 - - - -
01/06:30pm 17.5 SSE 15 22 1015.0 - 0.0 - - 9 - - - -
01/06:00pm 17.7 SSE 16 22 1014.7 - 0.0 - - 10 - - - -
01/05:30pm 18.2 S 15 22 1014.6 - 0.0 - - 7 - - - -
01/05:29pm 18.2 S 15 22 1014.6 - 0.0 - - 8 - - - -
01/05:15pm 18.3 SSE 15 21 1014.6 - 0.0 - - 5 - - - -
01/05:06pm 18.1 S 15 20 1014.7 - 0.0 - - 10 - - - -
01/05:00pm 18.2 S 15 21 1014.7 - 0.0 - - 10 - - - -
01/04:50pm 18.4 SSE 16 21 1014.8 - 0.0 - - 5 - - - -
01/04:30pm 18.6 SSE 14 20 1014.7 - 0.0 - - 10 - - - -
01/04:00pm 18.4 SSE 15 21 1014.8 - 0.0 - - 10 - - - -
01/03:30pm 18.1 SSE 16 23 1015.0 - 0.0 - - 10 - - - -
01/03:00pm 18.1 S 15 21 1015.2 - 0.0 - Mostly clear 10 - - - -
01/02:30pm 18.2 SSE 16 21 1015.2 - 0.0 - Partly cloudy 10 - - - -
01/02:00pm 18.3 SSE 15 23 1015.3 - 0.0 - Cloudy 10 - - - -
01/01:30pm 17.4 SSE 16 20 1015.4 - 0.0 - Cloudy 10 - - - -
01/01:00pm 16.7 SSE 15 22 1015.6 - 0.0 - Cloudy 10 - - - -
01/12:33pm 16.3 SSE 15 20 1015.6 - 0.0 - Cloudy 10 - - - -
01/12:30pm 16.0 SSE 15 21 1015.6 - 0.0 - Cloudy 10 - - - -
01/12:18pm 16.5 SSE 13 18 1015.6 - 0.0 - Cloudy 5 - - - -
01/12:00pm 15.7 SSE 15 20 1015.7 - 0.0 - Cloudy 10 - - - -
01/11:30am 15.4 SSE 13 20 1015.7 - 0.0 - Cloudy 10 - - - -
01/11:00am 15.0 SSE 14 18 1015.7 - 0.0 - Cloudy 10 - - - -
01/10:30am 14.5 SSE 14 22 1015.5 - 0.0 - Cloudy 10 - - - -
01/10:00am 14.1 SSE 14 18 1015.4 - 0.0 - Partly cloudy 10 - - - -
01/09:30am 13.9 SSE 13 17 1015.1 - 0.0 - Partly cloudy 10 - - - -
01/09:00am 14.6 SSE 13 18 1015.0 - 0.0 - Cloudy 10 - - - -
01/08:30am 13.3 SSE 15 21 1014.8 - 0.0 - Partly cloudy 10 - - - -
01/08:00am 13.1 SSE 14 19 1014.5 - 0.0 - Partly cloudy 10 - - - -
01/07:30am 12.6 SSE 13 18 1014.2 - 0.0 - Partly cloudy 10 - - - -
01/07:00am 12.4 SSE 13 19 1014.0 - 0.0 - Partly cloudy 10 - - - -
01/06:30am 12.5 SSE 13 18 1013.8 - 0.0 - Partly cloudy 10 - - - -
01/06:07am 12.4 SSE 11 15 1013.7 - 0.0 - Partly cloudy 10 - - - -
01/06:00am 12.5 SSE 11 16 1013.6 - 0.0 - Cloudy 10 - - - -
01/05:45am 12.5 SSE 12 16 1013.5 - 0.0 - Partly cloudy 10 - - - -
01/05:30am 12.3 SSE 11 16 1013.4 - 0.0 - Partly cloudy 10 - - - -
01/05:00am 12.9 S 13 19 1013.4 - 0.0 - Partly cloudy 10 - - - -
01/04:30am 13.2 SSE 11 16 1013.3 - 0.0 - Partly cloudy 10 - - - -
01/04:00am 13.3 SSE 12 16 1013.2 - 0.0 - Cloudy 10 - - - -
01/03:30am 13.4 SSE 11 16 1013.3 - 0.0 - Cloudy 10 - - - -
01/03:00am 13.5 SSE 12 17 1013.3 - 0.0 - Cloudy 10 - - - -
01/02:30am 13.5 SSE 11 17 1013.3 - 0.0 - Partly cloudy 10 - - - -
01/02:00am 13.4 SSE 12 17 1013.3 - 0.0 - Cloudy 10 - - - -
01/01:30am 13.3 SSE 11 16 1013.6 - 0.0 - Cloudy 10 - - - -
01/01:00am 13.4 SSE 10 14 1013.7 - 0.0 - Partly cloudy 10 - - - -
01/12:30am 13.5 SSE 10 14 1013.7 - 0.0 - Partly cloudy 10 - - - -
01/12:00am 13.5 S 10 14 1013.7 - 0.0 - Cloudy 10 - - - -
 
Date/Time
EDT
Temp

°C
Wind Pressure Rain
since 9am
mm
Weather Cloud Vis
km
Sea
Height
m
Swell
Dir
 
Speed
knots
Gust
knots
hPa Trend Height
m
Period
s
Dir
31/11:30pm 13.8 SSE 10 14 1013.9 - 0.0 - Partly cloudy 10 - - - -
31/11:00pm 13.9 S 11 16 1013.8 - 0.0 - Partly cloudy 10 - - - -
31/10:30pm 13.9 S 11 16 1013.8 - 0.0 - Partly cloudy 10 - - - -
31/10:00pm 14.2 S 12 16 1013.7 - 0.0 - Cloudy 10 - - - -
31/09:30pm 14.5 SSE 13 20 1013.5 - 0.0 - Cloudy 10 - - - -
31/09:00pm 14.5 S 15 21 1013.2 - 0.0 - Mostly cloudy 10 - - - -
31/08:30pm 14.8 SSE 15 21 1012.8 - 0.0 - Cloudy 10 - - - -
31/08:00pm 15.4 SSE 13 17 1012.5 - 0.0 - Partly cloudy 10 - - - -
31/07:30pm 16.0 S 12 17 1012.2 - 0.0 - Cloudy 10 - - - -
31/07:00pm 16.2 S 13 21 1012.3 - 0.0 - Cloudy 10 - - - -
31/06:49pm 16.7 S 15 19 1012.3 - 0.0 - Cloudy 10 - - - -
31/06:36pm 17.7 S 14 22 1012.1 - 0.0 - Cloudy 5 - - - -
31/06:30pm 17.3 S 16 21 1012.1 - 0.0 - Cloudy 9 - - - -
31/06:00pm 17.1 S 13 19 1012.2 - 0.0 - Cloudy 10 - - - -
31/05:30pm 17.5 S 13 17 1012.1 - 0.0 - Partly cloudy 10 - - - -
31/05:00pm 18.1 S 15 20 1012.1 - 0.0 - Cloudy 8 - - - -
31/04:48pm 18.1 S 14 19 1012.1 - 0.0 - Cloudy 10 - - - -
31/04:38pm 17.7 S 15 19 1012.1 - 0.0 - Partly cloudy 5 - - - -
31/04:30pm 18.1 S 15 21 1012.0 - 0.0 - Partly cloudy 10 - - - -
31/04:00pm 18.5 S 14 20 1012.0 - 0.0 - Partly cloudy 10 - - - -
31/03:30pm 18.8 S 13 19 1011.9 - 0.0 - Cloudy 10 - - - -
31/03:00pm 18.8 S 13 17 1012.0 - 0.0 - Mostly cloudy 10 - - - -
31/02:30pm 19.1 S 15 22 1012.2 - 0.0 - Partly cloudy 10 - - - -
31/02:00pm 17.9 S 12 16 1012.3 - 0.0 - Partly cloudy 10 - - - -
31/01:30pm 19.2 S 13 17 1012.5 - 0.0 - Partly cloudy 10 - - - -
31/01:00pm 18.1 SSE 15 21 1012.7 - 0.0 - Partly cloudy 10 - - - -
31/12:30pm 17.9 SSE 16 20 1012.7 - 0.0 - Cloudy 10 - - - -
31/12:00pm 18.2 SSE 13 19 1013.0 - 0.0 - Cloudy 10 - - - -
31/11:30am 17.2 SSE 15 19 1013.0 - 0.0 - Cloudy 10 - - - -
31/11:00am 17.4 SSE 15 19 1013.0 - 0.0 - Cloudy 10 - - - -
31/10:30am 16.6 SE 15 19 1013.3 - 0.0 - Partly cloudy 10 - - - -
31/10:00am 15.4 SSE 13 18 1013.5 - 0.0 - Partly cloudy 10 - - - -
31/09:30am 15.3 SSE 16 21 1013.5 - 0.0 - Partly cloudy 10 - - - -
31/09:00am 15.5 SSE 14 20 1013.5 - 0.0 - Mostly cloudy 10 - - - -
31/08:43am 14.4 SSE 15 19 1013.5 - 0.0 - Partly cloudy 10 - - - -
31/08:30am 13.7 SSE 15 20 1013.5 - 0.0 - Partly cloudy 10 - - - -
31/08:00am 13.6 SSE 15 20 1013.5 - 0.0 - Partly cloudy 10 - - - -
31/07:30am 13.3 SSE 15 20 1013.4 - 0.0 - Partly cloudy 10 - - - -
31/07:02am 13.2 SSE 15 21 1013.4 - 0.0 - Partly cloudy 10 - - - -
31/07:00am 13.2 SSE 15 21 1013.4 - 0.0 - Partly cloudy 10 - - - -
31/06:30am 13.1 SSE 15 21 1013.3 - 0.0 - Cloudy 10 - - - -
31/06:00am 13.1 SSE 14 23 1013.3 - 0.0 - Cloudy 10 - - - -
31/05:30am 13.2 SSE 17 23 1013.1 - 0.0 - Partly cloudy 10 - - - -
31/05:00am 13.2 SSE 13 19 1012.9 - 0.0 - Partly cloudy 10 - - - -
31/04:30am 13.3 SSE 14 20 1013.2 - 0.0 - Partly cloudy 10 - - - -
31/04:00am 13.3 SSE 16 22 1013.4 - 0.0 - Partly cloudy 10 - - - -
31/03:30am 13.2 SSE 14 20 1013.4 - 0.0 - Partly cloudy 10 - - - -
31/03:00am 13.0 SSE 16 22 1013.7 - 0.0 - Cloudy 10 - - - -
31/02:30am 12.9 SSE 15 22 1013.8 - 0.0 - Partly cloudy 10 - - - -
31/02:27am 12.9 SSE 16 22 1013.8 - 0.0 - Partly cloudy 10 - - - -
31/02:13am 13.0 SSE 15 19 1014.0 - 0.0 - Partly cloudy 10 - - - -
31/02:00am 13.0 SSE 14 19 1014.1 - 0.0 - Partly cloudy 10 - - - -
31/01:30am 13.1 SSE 14 19 1014.4 - 0.0 - Partly cloudy 10 - - - -
31/01:00am 13.3 SSE 14 20 1014.4 - 0.0 - Partly cloudy 10 - - - -
31/12:30am 13.3 SSE 17 23 1014.4 - 0.0 - Partly cloudy 10 - - - -
31/12:00am 13.2 SSE 14 19 1014.6 - 0.0 - Partly cloudy 10 - - - -
 
Date/Time
EDT
Temp

°C
Wind Pressure Rain
since 9am
mm
Weather Cloud Vis
km
Sea
Height
m
Swell
Dir
 
Speed
knots
Gust
knots
hPa Trend Height
m
Period
s
Dir
30/11:30pm 13.5 SSE 16 21 1014.8 - 0.0 - Partly cloudy 10 - - - -
30/11:00pm 13.7 SSE 16 22 1014.6 - 0.0 - - 10 - - - -
30/10:30pm 14.0 SSE 16 21 1014.8 - 0.0 - - 10 - - - -
30/10:00pm 14.2 SSE 14 20 1014.8 - 0.0 - - 10 - - - -
30/09:30pm 14.5 S 13 16 1014.7 - 0.0 - - 10 - - - -
30/09:00pm 15.0 S 14 19 1014.5 - 0.0 - - 10 - - - -
30/08:30pm 16.2 S 14 20 1014.2 - 0.0 - - 10 - - - -
30/08:00pm 16.7 SSE 17 25 1014.0 - 0.0 - - 10 - - - -
30/07:30pm 17.6 S 15 22 1014.0 - 0.0 - - 10 - - - -
30/07:00pm 18.4 S 15 21 1013.8 - 0.0 - - 10 - - - -
30/06:30pm 19.4 SSW 18 25 1013.6 - 0.0 - - 10 - - - -
30/06:00pm 20.6 S 17 24 1013.8 - 0.0 - - 10 - - - -
30/05:30pm 20.7 SSE 14 20 1013.9 - 0.0 - - 10 - - - -
30/05:00pm 20.7 S 14 21 1014.0 - 0.0 - - 10 - - - -
30/04:30pm 21.5 SSE 16 23 1014.3 - 0.0 - - 10 - - - -
30/04:00pm 21.6 SSE 16 22 1014.5 - 0.0 - - 10 - - - -
30/03:30pm 21.2 SSE 15 20 1014.9 - 0.0 - - 10 - - - -
30/03:00pm 21.4 SSE 17 22 1015.2 - 0.0 - - 10 - - - -
30/02:30pm 20.9 S 16 22 1015.6 - 0.0 - Partly cloudy 10 - - - -
30/02:00pm 19.7 SSE 17 23 1015.9 - 0.0 - - 10 - - - -
30/01:30pm 21.4 SSE 15 22 1016.1 - 0.0 - Partly cloudy 10 - - - -
30/01:00pm 20.9 SSE 16 22 1016.6 - 0.0 - Partly cloudy 10 - - - -
30/12:30pm 19.3 SSE 15 20 1016.9 - 0.0 - - 10 - - - -
30/12:00pm 18.1 SSE 16 23 1017.4 - 0.0 - - 10 - - - -
30/11:30am 18.4 SSE 17 22 1017.6 - 0.0 - Partly cloudy 10 - - - -
30/11:00am 17.6 SSE 15 22 1018.1 - 0.0 - Partly cloudy 10 - - - -
30/10:30am 16.7 SSE 15 21 1018.3 - 0.0 - - 10 - - - -
30/10:00am 16.1 SSE 15 21 1018.8 - 0.0 - - 10 - - - -
30/09:30am 15.4 SSE 13 18 1019.3 - 0.0 - - 10 - - - -
30/09:00am 13.9 SSE 14 18 1019.5 - 0.0 - Cloudy 10 - - - -
30/08:30am 12.5 SSE 13 18 1019.5 - 0.0 - Cloudy 10 - - - -
30/08:00am 12.0 SSE 15 21 1019.4 - 0.0 - Partly cloudy 10 - - - -
30/07:30am 12.0 SE 13 18 1019.3 - 0.0 - Partly cloudy 10 - - - -
30/07:00am 11.5 SE 14 19 1019.3 - 0.0 - Partly cloudy 10 - - - -
30/06:30am 11.3 SSE 13 17 1019.2 - 0.0 - - 10 - - - -
30/06:00am 11.5 SSE 10 16 1019.4 - 0.0 - Mostly clear 10 - - - -
30/05:30am 11.3 SSE 11 17 1019.3 - 0.0 - - 10 - - - -
30/05:00am 11.5 SSE 12 17 1019.3 - 0.0 - - 10 - - - -
30/04:30am 11.9 SSE 11 15 1019.5 - 0.0 - - 10 - - - -
30/04:00am 12.1 SSE 13 18 1019.7 - 0.0 - - 10 - - - -
30/03:30am 12.2 SSE 13 17 1020.1 - 0.0 - Partly cloudy 10 - - - -
30/03:00am 11.8 SSE 11 15 1020.4 - 0.0 - Cloudy 10 - - - -
30/02:30am 11.3 SE 10 14 1020.6 - 0.0 - - 10 - - - -
30/02:00am 11.6 SE 13 17 1020.8 - 0.0 - - 10 - - - -
30/01:30am 11.5 SE 10 14 1021.1 - 0.0 - - 10 - - - -
30/01:00am 11.4 SE 9 11 1021.4 - 0.0 - - 10 - - - -
30/12:30am 11.7 SE 11 14 1021.4 - 0.0 - - 10 - - - -
30/12:00am 11.8 SE 10 15 1021.3 - 0.0 - Mostly clear 10 - - - -
 
Date/Time
EDT
Temp

°C
Wind Pressure Rain
since 9am
mm
Weather Cloud Vis
km
Sea
Height
m
Swell
Dir
 
Speed
knots
Gust
knots
hPa Trend Height
m
Period
s
Dir
29/11:30pm 12.2 SE 9 13 1021.3 - 0.0 - - 10 - - - -
29/11:00pm 12.4 SE 11 15 1021.4 - 0.0 - - 10 - - - -
29/10:30pm 13.3 SE 14 18 1021.4 - 0.0 - - 10 - - - -
29/10:00pm 14.1 SE 16 21 1021.3 - 0.0 - - 10 - - - -
29/09:30pm 14.5 SE 17 24 1021.0 - 0.0 - - 10 - - - -

Other Formats:

Comma delimited format used in spreadsheet applications
http://www.bom.gov.au/fwo/IDT60701/IDT60701.94956.axf

JavaScript Object Notation format (JSON) in row-major order
http://www.bom.gov.au/fwo/IDT60701/IDT60701.94956.json